Simultaneous Nadir Overpasses (SNOs) Predictions

Prediction of SNOs between NOAA-19 and NPP Satellite Orbit:

Table of predicted SNOs for the next 14.0 days since TLE Epoch: 6/8/2017
Index Date (NOAA-19) Time (NOAA-19) Lat,Lon (NOAA-19) SZA (NOAA-19 ) Date (NPP) Time (NPP) Lat,Lon (NPP) SZA (NPP ) Distance(km) Time Diff (sec)
1 06/19/2017 23:30:11 80.82, 137.11 60.95 06/19/2017 23:31:24 80.83, 137.11 60.91 1.28 73
2 06/20/2017 00:21:11 -80.83, -55.46 119.08 06/20/2017 00:22:08 -80.82, -55.31 119.13 2.90 57
3 06/20/2017 01:12:12 80.83, 111.82 60.92 06/20/2017 01:12:54 80.84, 111.69 60.92 2.39 42
4 06/20/2017 02:03:12 -80.83, -80.76 119.10 06/20/2017 02:03:38 -80.82, -80.72 119.13 1.45 26
5 06/20/2017 02:54:13 80.83, 86.53 60.90 06/20/2017 02:54:23 80.82, 86.63 60.87 2.46 10
6 06/20/2017 03:45:14 -80.83,-106.42 119.08 06/20/2017 03:45:09 -80.84,-106.48 119.07 1.86 5
7 06/20/2017 04:36:15 80.83, 60.87 60.91 06/20/2017 04:35:54 80.84, 60.87 60.93 1.14 21
8 06/20/2017 05:27:15 -80.84,-131.71 119.11 06/20/2017 05:26:38 -80.83,-131.54 119.12 3.19 37
9 06/20/2017 06:18:16 80.84, 35.59 60.89 06/20/2017 06:17:24 80.84, 35.45 60.94 2.46 52




NCC Satellite Simultaneous Nadir Overpasses (SNOs) Prediction Service
